Location: �bnet
(46.9957°N, 8.4908°E)
Time: 10:05:42
(UTC+00:00)

Meteor 1-19 Rocket - Pass Details

Date: 11 May 2021
Orbit: 808 x 927 km, 81.2° (Epoch: 13 June)

Event Time Altitude Azimuth Distance (km) Brightness Sun altitude
Exits shadow 22:19:18 58° 156° (SSE) 938 4.0 -23.3°
Maximum altitude 22:20:15 72° 98° (E) 851 4.0 -23.4°
Drops below altitude 10° 22:25:38 10° 15° (NNE) 2,406 7.4 -23.6°
Sets 22:28:02 0° 14° (NNE) 3,347 8.3 -23.7°
